EW5962 Weather Reports


time (UTC)temp
C
wind
direction
speed
KPH
gust
KPH
rain 1hr
cm
rain 24hr
cm
rain mn
cm
humidity
%
barometer
mb
20260903154504 33 205 0.0 1.6 0.00 0.00 0.00 60 1016.2
20260903154015 33 318 0.0 1.6 0.00 0.00 0.00 61 1016.2
20260903153603 32 183 0.0 3.2 0.00 0.00 0.00 69 1016.2
20260903153003 32 1 0.0 0.0 0.00 0.00 0.00 69 1016.3
20260903152509 32 357 0.0 0.0 0.00 0.00 0.00 64 1016.4
20260903152102 31 5 0.0 0.0 0.00 0.00 0.00 71 1016.4
20260903151502 31 346 0.0 0.0 0.00 0.00 0.00 66 1016.4
20260903151008 31 25 0.0 0.0 0.00 0.00 0.00 67 1016.4
20260903150603 30 348 0.0 0.0 0.00 0.00 0.00 74 1016.4
20260903150007 30 269 0.0 0.0 0.00 0.00 0.00 73 1016.4
20260903145508 30 349 0.0 0.0 0.00 0.00 0.00 76 1016.4
20260903145102 29 351 0.0 0.0 0.00 0.00 0.00 76 1016.3
20260903144502 28 10 0.0 0.0 0.00 0.00 0.00 77 1016.3
20260903144009 28 8 0.0 0.0 0.00 0.00 0.00 76 1016.3
20260903143601 28 15 0.0 0.0 0.00 0.00 0.00 77 1016.3
20260903143002 27 348 0.0 1.6 0.00 0.00 0.00 82 1016.3
20260903142508 27 353 0.0 1.6 0.00 0.00 0.00 79 1016.3
20260903142104 27 43 0.0 0.0 0.00 0.00 0.00 84 1016.3
20260903141502 26 197 0.0 0.0 0.00 0.00 0.00 87 1016.3
20260903141010 26 197 0.0 0.0 0.00 0.00 0.00 88 1016.4
20260903140603 26 197 0.0 0.0 0.00 0.00 0.00 90 1016.4
20260903140003 25 195 0.0 0.0 0.00 0.00 0.00 91 1016.4
20260903135509 25 198 0.0 0.0 0.00 0.00 0.00 93 1016.4
20260903135103 25 198 0.0 0.0 0.00 0.00 0.00 94 1016.3
20260903134502 24 198 0.0 0.0 0.00 0.00 0.00 94 1016.4
20260903134008 24 198 0.0 0.0 0.00 0.00 0.00 96 1016.3
20260903133604 23 198 0.0 0.0 0.00 0.00 0.00 97 1016.4
20260903133002 23 198 0.0 0.0 0.00 0.00 0.00 97 1016.3
20260903132512 23 198 0.0 0.0 0.00 0.00 0.00 97 1016.3
20260903132101 23 198 0.0 0.0 0.00 0.00 0.00 97 1016.3
20260903131502 22 198 0.0 0.0 0.00 0.00 0.00 98 1016.4
20260903131009 22 198 0.0 0.0 0.00 0.00 0.00 98 1016.4
20260903130603 22 198 0.0 0.0 0.00 0.00 0.00 98 1016.5
20260903130002 22 198 0.0 0.0 0.00 0.00 0.00 97 1016.5
20260903125509 22 198 0.0 0.0 0.00 0.00 0.00 97 1016.5
20260903125102 21 198 0.0 0.0 0.00 0.00 0.00 97 1016.5
20260903124503 21 198 0.0 0.0 0.00 0.00 0.00 97 1016.5
20260903124008 21 198 0.0 0.0 0.00 0.00 0.00 97 1016.5
20260903123601 21 198 0.0 0.0 0.00 0.00 0.00 97 1016.5
20260903123007 21 198 0.0 0.0 0.00 0.00 0.00 97 1016.5
20260903122508 21 198 0.0 0.0 0.00 0.00 0.00 97 1016.5
20260903122103 21 198 0.0 0.0 0.00 0.00 0.00 97 1016.4
20260903121502 21 198 0.0 0.0 0.00 0.00 0.00 97 1016.4
20260903121012 21 198 0.0 0.0 0.00 0.00 0.00 97 1016.4
20260903120605 21 198 0.0 0.0 0.00 0.00 0.00 96 1016.4
20260903120002 21 198 0.0 0.0 0.00 0.00 0.00 96 1016.4
20260903115508 21 198 0.0 0.0 0.00 0.00 0.00 96 1016.4
20260903115103 21 198 0.0 0.0 0.00 0.00 0.00 96 1016.4
20260903114502 20 198 0.0 0.0 0.00 0.00 0.00 96 1016.3
20260903114009 20 198 0.0 0.0 0.00 0.00 0.00 96 1016.1
20260903113602 21 198 0.0 0.0 0.00 0.00 0.00 96 1016.1
20260903113006 20 198 0.0 0.0 0.00 0.00 0.00 96 1016.1
20260903112508 20 198 0.0 0.0 0.00 0.00 0.00 96 1016.0
20260903112102 20 198 0.0 0.0 0.00 0.00 0.00 96 1016.1
20260903111506 20 198 0.0 0.0 0.00 0.00 0.00 96 1016.1
20260903111008 21 198 0.0 0.0 0.00 0.00 0.00 96 1016.1
20260903110606 21 198 0.0 0.0 0.00 0.00 0.00 96 1016.0
20260903110005 21 198 0.0 0.0 0.00 0.00 0.00 96 1016.0
20260903105514 21 198 0.0 0.0 0.00 0.00 0.00 96 1016.0
20260903105103 21 198 0.0 0.0 0.00 0.00 0.00 96 1015.9
20260903104504 21 198 0.0 0.0 0.00 0.00 0.00 96 1015.8
20260903104010 21 198 0.0 0.0 0.00 0.00 0.00 96 1015.8
20260903103603 21 198 0.0 0.0 0.00 0.00 0.00 96 1015.8
20260903103005 21 198 0.0 0.0 0.00 0.00 0.00 96 1015.7
20260903102510 21 198 0.0 0.0 0.00 0.00 0.00 96 1015.7
20260903102103 21 198 0.0 0.0 0.00 0.00 0.00 96 1015.7
20260903101503 21 198 0.0 0.0 0.00 0.00 0.00 96 1015.7
20260903101009 21 198 0.0 0.0 0.00 0.00 0.00 96 1015.6
20260903100604 21 198 0.0 0.0 0.00 0.00 0.00 95 1015.5
20260903100007 21 198 0.0 0.0 0.00 0.00 0.00 96 1015.4
20260903095510 21 198 0.0 0.0 0.00 0.00 0.00 96 1015.4
20260903095103 21 198 0.0 0.0 0.00 0.00 0.00 95 1015.4
20260903094503 21 198 0.0 0.0 0.00 0.00 0.00 95 1015.4
20260903094010 21 198 0.0 0.0 0.00 0.00 0.00 95 1015.4
20260903093605 21 198 0.0 0.0 0.00 0.00 0.00 95 1015.4
20260903093012 21 198 0.0 0.0 0.00 0.00 0.00 95 1015.4
20260903092510 21 198 0.0 0.0 0.00 0.00 0.00 95 1015.4
20260903092103 21 198 0.0 0.0 0.00 0.00 0.00 95 1015.4
20260903091503 21 198 0.0 0.0 0.00 0.00 0.00 95 1015.4
20260903091009 21 198 0.0 0.0 0.00 0.00 0.00 95 1015.3
20260903090604 21 198 0.0 0.0 0.00 0.00 0.00 95 1015.3
20260903090003 21 198 0.0 0.0 0.00 0.00 0.00 95 1015.4
20260903085510 21 198 0.0 0.0 0.00 0.00 0.00 95 1015.2
20260903085104 21 198 0.0 0.0 0.00 0.00 0.00 95 1015.2
20260903084507 21 198 0.0 0.0 0.00 0.00 0.00 95 1015.2
20260903084010 21 198 0.0 0.0 0.00 0.00 0.00 95 1015.1
20260903083604 21 198 0.0 0.0 0.00 0.00 0.00 95 1015.2
20260903083002 21 198 0.0 0.0 0.00 0.00 0.00 95 1015.0
20260903082509 21 198 0.0 0.0 0.00 0.00 0.00 95 1015.1
20260903082106 21 198 0.0 0.0 0.00 0.00 0.00 95 1015.0
20260903081504 21 198 0.0 0.0 0.00 0.00 0.00 95 1015.1
20260903081011 21 198 0.0 0.0 0.00 0.00 0.00 95 1015.0
20260903080604 21 198 0.0 0.0 0.00 0.00 0.00 95 1015.0
20260903080004 21 198 0.0 0.0 0.00 0.00 0.00 95 1015.0
20260903075510 21 198 0.0 0.0 0.00 0.00 0.00 95 1015.0
20260903075103 21 198 0.0 0.0 0.00 0.00 0.00 95 1015.0
20260903074508 21 198 0.0 0.0 0.00 0.00 0.00 95 1015.0
20260903074015 21 198 0.0 0.0 0.00 0.00 0.00 95 1015.0
20260903073604 21 198 0.0 0.0 0.00 0.00 0.00 95 1015.0
20260903073003 22 198 0.0 0.0 0.00 0.00 0.00 95 1014.9
20260903072509 22 198 0.0 0.0 0.00 0.00 0.00 95 1014.9
20260903072104 22 198 0.0 0.0 0.00 0.00 0.00 94 1015.0
20260903071509 22 198 0.0 0.0 0.00 0.00 0.00 94 1015.1
20260903071011 22 198 0.0 0.0 0.00 0.00 0.00 94 1015.1
20260903070604 22 198 0.0 0.0 0.00 0.00 0.00 94 1015.1
20260903070004 22 198 0.0 0.0 0.00 0.00 0.00 94 1015.1
20260903065511 22 198 0.0 0.0 0.00 0.00 0.00 94 1015.1
20260903065105 22 198 0.0 0.0 0.00 0.00 0.00 94 1015.1
20260903064505 22 198 0.0 0.0 0.00 0.00 0.00 94 1015.0
20260903064009 22 198 0.0 0.0 0.00 0.00 0.00 94 1014.9
20260903063603 22 198 0.0 0.0 0.00 0.00 0.00 94 1014.9
20260903063005 22 198 0.0 0.0 0.00 0.00 0.00 94 1015.0
20260903062512 22 198 0.0 0.0 0.00 0.00 0.00 94 1015.0
20260903062103 22 198 0.0 0.0 0.00 0.00 0.00 94 1015.0
20260903061504 22 198 0.0 0.0 0.00 0.00 0.00 94 1015.0
20260903061013 22 198 0.0 0.0 0.00 0.00 0.00 94 1015.0
20260903060603 22 198 0.0 0.0 0.00 0.00 0.00 94 1015.1
20260903060003 22 198 0.0 0.0 0.00 0.00 0.00 94 1015.0
20260903055510 22 198 0.0 0.0 0.00 0.00 0.00 94 1015.0
20260903055104 22 198 0.0 0.0 0.00 0.00 0.00 94 1015.0
20260903054508 22 198 0.0 0.0 0.00 0.00 0.00 94 1015.1
20260903054010 22 198 0.0 0.0 0.00 0.00 0.00 93 1015.1
20260903053604 22 198 0.0 0.0 0.00 0.00 0.00 93 1015.0
20260903053004 22 198 0.0 0.0 0.00 0.00 0.00 93 1015.0
20260903052511 22 198 0.0 0.0 0.00 0.00 0.00 94 1015.1
20260903052104 22 198 0.0 0.0 0.00 0.00 0.00 93 1015.1
20260903051503 22 198 0.0 0.0 0.00 0.00 0.00 93 1015.1
20260903051011 22 198 0.0 0.0 0.00 0.00 0.00 93 1015.1
20260903050606 22 198 0.0 0.0 0.00 0.00 0.00 93 1015.2
20260903050111 22 198 0.0 0.0 0.00 0.00 0.00 93 1015.1
20260903045510 23 198 0.0 0.0 0.00 0.00 0.00 93 1015.1
20260903045104 23 198 0.0 0.0 0.00 0.00 0.00 93 1015.1
20260903044503 23 198 0.0 0.0 0.00 0.00 0.00 93 1014.9
20260903044009 23 198 0.0 0.0 0.00 0.00 0.00 93 1014.9
20260903043603 23 198 0.0 0.0 0.00 0.00 0.00 93 1014.8
20260903043003 23 198 0.0 0.0 0.00 0.00 0.00 93 1014.9
20260903042511 23 198 0.0 0.0 0.00 0.00 0.00 93 1014.9
20260903042104 23 198 0.0 0.0 0.00 0.00 0.00 93 1015.0
20260903041505 23 198 0.0 0.0 0.00 0.00 0.00 92 1015.0
20260903041005 23 198 0.0 0.0 0.00 0.00 0.00 92 1015.1
20260903040605 23 198 0.0 0.0 0.00 0.00 0.00 92 1015.1
20260903040003 23 198 0.0 0.0 0.00 0.00 0.00 92 1015.0
20260903035510 23 198 0.0 0.0 0.00 0.00 0.00 92 1015.1
20260903035104 23 198 0.0 0.0 0.00 0.00 0.00 92 1015.1
20260903034503 23 198 0.0 0.0 0.00 0.00 0.00 92 1015.1
20260903034010 23 198 0.0 0.0 0.00 0.00 0.00 92 1015.2
20260903033603 23 198 0.0 0.0 0.00 0.00 0.00 91 1015.2
20260903033003 23 198 0.0 0.0 0.00 0.00 0.00 91 1015.2
20260903032509 23 198 0.0 0.0 0.00 0.00 0.00 91 1015.2
20260903032104 23 198 0.0 0.0 0.00 0.00 0.00 91 1015.3
20260903031513 24 198 0.0 0.0 0.00 0.00 0.00 91 1015.3
20260903031010 24 198 0.0 0.0 0.00 0.00 0.00 91 1015.4
20260903030605 24 198 0.0 0.0 0.00 0.00 0.00 91 1015.4
20260903030004 24 198 0.0 0.0 0.00 0.00 0.00 91 1015.4
20260903025509 24 198 0.0 0.0 0.00 0.00 0.00 90 1015.4
20260903025104 24 198 0.0 0.0 0.00 0.00 0.00 90 1015.5
20260903024504 24 198 0.0 0.0 0.00 0.00 0.00 90 1015.6
20260903024010 24 198 0.0 0.0 0.00 0.00 0.00 90 1015.7
20260903023606 24 198 0.0 0.0 0.00 0.00 0.00 90 1015.7
20260903023003 25 198 0.0 0.0 0.00 0.00 0.00 89 1015.7
20260903022511 25 198 0.0 0.0 0.00 0.00 0.00 89 1015.8
20260903022106 25 198 0.0 0.0 0.00 0.00 0.00 89 1015.9
20260903021506 25 198 0.0 0.0 0.00 0.00 0.00 88 1015.8
20260903021014 25 198 0.0 0.0 0.00 0.00 0.00 88 1015.9
20260903020605 25 198 0.0 0.0 0.00 0.00 0.00 87 1015.8
20260903020003 25 198 0.0 0.0 0.00 0.00 0.00 87 1015.8
20260903015509 25 198 0.0 0.0 0.00 0.00 0.00 87 1015.8
20260903015105 25 198 0.0 0.0 0.00 0.00 0.00 86 1015.9
20260903014503 25 198 0.0 0.0 0.00 0.00 0.00 86 1015.8
20260903014009 25 198 0.0 0.0 0.00 0.00 0.00 86 1015.8
20260903013603 25 198 0.0 0.0 0.00 0.00 0.00 86 1015.8
20260903013007 26 198 0.0 0.0 0.00 0.00 0.00 85 1015.8
20260903012511 26 198 0.0 0.0 0.00 0.00 0.00 85 1015.7
20260903012103 26 198 0.0 0.0 0.00 0.00 0.00 85 1015.7
20260903011503 26 198 0.0 0.0 0.00 0.00 0.00 84 1015.6
20260903011010 26 198 0.0 0.0 0.00 0.00 0.00 84 1015.5
20260903010603 26 198 0.0 0.0 0.00 0.00 0.00 83 1015.5
20260903010003 26 198 0.0 0.0 0.00 0.00 0.00 83 1015.4
20260903005509 26 198 0.0 0.0 0.00 0.00 0.00 82 1015.4
20260903005103 26 198 0.0 0.0 0.00 0.00 0.00 82 1015.4
20260903004512 27 198 0.0 0.0 0.00 0.00 0.00 81 1015.4
20260903004009 27 198 0.0 0.0 0.00 0.00 0.00 81 1015.3
20260903003603 27 198 0.0 0.0 0.00 0.00 0.00 80 1015.2
20260903003004 27 198 0.0 0.0 0.00 0.00 0.00 79 1015.1
20260903002509 27 198 0.0 0.0 0.00 0.00 0.00 79 1015.1
20260903002106 27 198 0.0 0.0 0.00 0.00 0.00 78 1015.1
20260903001506 28 198 0.0 0.0 0.00 0.00 0.00 78 1015.0
20260903001011 28 198 0.0 0.0 0.00 0.00 0.00 77 1015.0
20260903000604 28 198 0.0 0.0 0.00 0.00 0.00 76 1015.0
20260903000005 28 198 0.0 0.0 0.00 0.00 0.00 76 1015.0
20260902235512 28 198 0.0 0.0 0.00 0.00 0.00 75 1014.9
20260902235104 28 198 0.0 0.0 0.00 0.00 0.00 74 1014.9
20260902234505 29 198 0.0 0.0 0.00 0.00 0.00 73 1014.9
20260902234009 29 198 0.0 0.0 0.00 0.00 0.00 73 1014.9
20260902233603 29 198 0.0 0.0 0.00 0.00 0.00 73 1014.9
20260902233004 30 198 0.0 0.0 0.00 0.00 0.00 72 1014.9
20260902232513 30 198 0.0 0.0 0.00 0.00 0.00 71 1014.8
20260902232103 30 198 0.0 0.0 0.00 0.00 0.00 71 1014.8
20260902231508 30 198 0.0 0.0 0.00 0.00 0.00 69 1014.8
20260902231011 31 198 0.0 0.0 0.00 0.00 0.00 68 1014.8
20260902230603 31 198 0.0 0.0 0.00 0.00 0.00 68 1014.8
20260902230003 31 198 0.0 0.0 0.00 0.00 0.00 66 1014.7
20260902225509 31 198 0.0 0.0 0.00 0.00 0.00 66 1014.8
20260902225106 31 198 0.0 0.0 0.00 0.00 0.00 64 1014.7
20260902224503 32 198 0.0 0.0 0.00 0.00 0.00 64 1014.7
20260902224009 32 198 0.0 0.0 0.00 0.00 0.00 61 1014.6
20260902223603 32 198 0.0 0.0 0.00 0.00 0.00 62 1014.6
20260902223003 32 198 0.0 0.0 0.00 0.00 0.00 61 1014.6
20260902222511 32 198 0.0 0.0 0.00 0.00 0.00 61 1014.6
20260902222103 32 198 0.0 0.0 0.00 0.00 0.00 60 1014.6
20260902221503 33 194 0.0 0.0 0.00 0.00 0.00 59 1014.6
20260902221009 33 194 0.0 0.0 0.00 0.00 0.00 55 1014.6
20260902220605 33 194 0.0 0.0 0.00 0.00 0.00 59 1014.6
20260902220003 33 194 0.0 0.0 0.00 0.00 0.00 56 1014.7
20260902215515 33 194 0.0 0.0 0.00 0.00 0.00 53 1014.7
20260902215107 33 194 0.0 0.0 0.00 0.00 0.00 53 1014.7
20260902214503 34 194 0.0 0.0 0.00 0.00 0.00 53 1014.8
20260902214010 34 194 0.0 0.0 0.00 0.00 0.00 53 1014.7
20260902213605 35 194 0.0 0.0 0.00 0.00 0.00 52 1014.8
20260902213003 35 194 0.0 0.0 0.00 0.00 0.00 48 1014.8
20260902212509 35 197 0.0 0.0 0.00 0.00 0.00 50 1014.8
20260902212104 35 197 0.0 0.0 0.00 0.00 0.00 45 1014.8
20260902211504 35 197 0.0 1.6 0.00 0.00 0.00 45 1014.7
20260902211009 35 197 0.0 1.6 0.00 0.00 0.00 45 1014.8
20260902210604 36 176 0.0 1.6 0.00 0.00 0.00 47 1014.8
20260902210003 36 231 0.0 1.6 0.00 0.00 0.00 44 1014.8
20260902205508 36 216 0.0 1.6 0.00 0.00 0.00 52 1014.7
20260902205103 36 215 0.0 0.0 0.00 0.00 0.00 51 1014.7
20260902204503 36 215 0.0 0.0 0.00 0.00 0.00 47 1014.8
20260902204010 36 215 0.0 3.2 0.00 0.00 0.00 50 1014.8
20260902203604 36 216 0.0 3.2 0.00 0.00 0.00 48 1014.8
20260902203004 36 207 0.0 0.0 0.00 0.00 0.00 44 1014.9
20260902202510 36 214 0.0 0.0 0.00 0.00 0.00 42 1014.9
20260902202107 36 191 0.0 3.2 0.00 0.00 0.00 47 1014.8
20260902201503 36 191 0.0 3.2 0.00 0.00 0.00 46 1014.9
20260902201009 36 196 0.0 6.4 0.00 0.00 0.00 46 1014.9
20260902200603 37 148 1.6 6.4 0.00 0.00 0.00 43 1014.9
20260902200010 37 170 1.6 4.8 0.00 0.00 0.00 43 1015.0
20260902195511 36 172 0.0 8.0 0.00 0.00 0.00 43 1015.1
20260902195103 36 205 1.6 8.0 0.00 0.00 0.00 44 1015.1
20260902194504 36 176 0.0 6.4 0.00 0.00 0.00 44 1015.2
20260902194010 36 219 0.0 3.2 0.00 0.00 0.00 43 1015.2
20260902193603 36 229 0.0 1.6 0.00 0.00 0.00 43 1015.3
20260902193003 36 224 0.0 1.6 0.00 0.00 0.00 51 1015.3
20260902192510 37 275 0.0 4.8 0.00 0.00 0.00 49 1015.4
20260902192103 37 311 0.0 4.8 0.00 0.00 0.00 44 1015.4
20260902191503 37 294 0.0 8.0 0.00 0.00 0.00 45 1015.5
20260902191010 37 316 1.6 8.0 0.00 0.00 0.00 42 1015.7
20260902190606 37 134 0.0 1.6 0.00 0.00 0.00 47 1015.7
20260902190004 36 312 0.0 6.4 0.00 0.00 0.00 46 1015.7
20260902185510 36 87 0.0 6.4 0.00 0.00 0.00 46 1015.6
20260902185105 36 16 0.0 8.0 0.00 0.00 0.00 46 1015.7
20260902184504 36 349 0.0 8.0 0.00 0.00 0.00 45 1015.8
20260902184009 36 180 0.0 6.4 0.00 0.00 0.00 47 1015.9
20260902183603 36 274 0.0 6.4 0.00 0.00 0.00 48 1016.0
20260902183004 36 1 0.0 6.4 0.00 0.00 0.00 46 1016.0
20260902182509 36 32 0.0 6.4 0.00 0.00 0.00 47 1016.0
20260902182104 35 300 0.0 1.6 0.00 0.00 0.00 53 1016.1
20260902181504 35 237 0.0 1.6 0.00 0.00 0.00 50 1016.1
20260902181009 35 239 0.0 0.0 0.00 0.00 0.00 53 1016.1
20260902180605 34 18 0.0 0.0 0.00 0.00 0.00 56 1016.1
20260902180004 34 348 0.0 0.0 0.00 0.00 0.00 50 1016.1
20260902175509 34 348 0.0 0.0 0.00 0.00 0.00 50 1016.2
20260902175104 34 348 0.0 4.8 0.00 0.00 0.00 50 1016.2
20260902174503 35 301 0.0 6.4 0.00 0.00 0.00 50 1016.2
20260902174009 35 3 0.0 6.4 0.00 0.00 0.00 50 1016.4
20260902173603 35 311 0.0 1.6 0.00 0.00 0.00 50 1016.4
20260902173003 34 162 0.0 3.2 0.00 0.00 0.00 53 1016.4
20260902172509 34 162 0.0 3.2 0.00 0.00 0.00 50 1016.4
20260902172104 35 184 0.0 6.4 0.00 0.00 0.00 53 1016.5
20260902171504 35 174 1.6 6.4 0.00 0.00 0.00 50 1016.6
20260902171009 34 212 1.6 6.4 0.00 0.00 0.00 51 1016.7
20260902170603 34 221 0.0 8.0 0.00 0.00 0.00 54 1016.7
20260902170003 35 218 1.6 9.7 0.00 0.00 0.00 51 1016.8
20260902165510 35 181 3.2 9.7 0.00 0.00 0.00 51 1016.8
20260902165106 35 169 0.0 4.8 0.00 0.00 0.00 50 1016.9
20260902164503 35 1 3.2 4.8 0.00 0.00 0.00 50 1016.9
20260902164009 35 78 0.0 4.8 0.00 0.00 0.00 53 1016.9
20260902163602 35 41 0.0 4.8 0.00 0.00 0.00 52 1016.9
20260902163002 34 357 0.0 8.0 0.00 0.00 0.00 54 1017.0
20260902162509 34 1 1.6 8.0 0.00 0.00 0.00 51 1017.1
20260902162103 34 354 3.2 8.0 0.00 0.00 0.00 53 1017.1
20260902161504 33 9 0.0 4.8 0.00 0.00 0.00 54 1017.2
20260902161013 33 201 1.6 4.8 0.00 0.00 0.00 56 1017.2
20260902160603 33 209 0.0 6.4 0.00 0.00 0.00 56 1017.2
20260902160110 33 175 1.6 6.4 0.00 0.00 0.00 56 1017.3
20260902155509 33 210 0.0 4.8 0.00 0.00 0.00 57 1017.3
20260902155103 33 223 0.0 3.2 0.00 0.00 0.00 53 1017.4